Location: Dunmow
(51.8833°N, 0.3667°E)
Time: 10:51:27
(UTC+00:00)

Daily predictions for brighter satellites

Satellite Brightness Start Highest point End
(mag) Time Altitude Azimuth Time Altitude Azimuth Time Altitude Azimuth
Resurs 01 Rocket 3.2 18:41:27 10° E 18:44:23 18° ENE 18:47:21 10° NNE
Cosmos 407 Rocket 4.0 18:42:50 10° NNW 18:48:07 66° WSW 18:53:24 10° S
Cosmos 1802 Rocket 4.4 18:43:21 10° N 18:49:17 43° ENE 18:55:14 10° SE
Cosmos 1633 Rocket 3.0 18:44:57 10° S 18:49:20 79° E 18:53:47 10° NNE
USA 306 4.2 18:50:35 10° W 18:53:55 30° SW 18:57:14 10° SSE
USA 267 4.5 18:48:04 10° SSE 18:54:09 40° SW 19:00:17 10° WNW
Cosmos 1818 3.6 18:49:49 10° NW 18:55:19 78° NE 19:00:46 10° SE
Meteor 1-11 Rocket 4.0 18:49:40 10° SSW 18:55:36 84° WNW 19:01:28 10° NNE
NOSS 3-1 (A) 4.1 18:50:58 10° WSW 18:56:16 55° NNW 19:02:46 10° NE
Cosmos 1626 2.1 18:53:34 10° N 18:57:07 58° ENE 19:00:38 10° SSE
NOSS 3-2 (A) 4.1 18:53:38 10° NW 19:00:45 71° NE 19:09:11 10° SE
Cosmos 1371 Rocket 4.2 18:56:26 10° S 19:01:29 48° ESE 19:06:31 10° NE
Cosmos 1703 Rocket 3.7 18:57:50 10° N 19:02:15 55° ENE 19:06:37 10° SSE
Meteor 1-21 4.3 18:56:46 10° N 19:02:19 58° ENE 19:07:52 10° SSE
Exosat Rocket 4.1 18:59:17 10° S 19:04:10 45° ESE 19:10:20 10° NE
Cosmos 2322 Rocket 4.0 18:59:32 10° NW 19:04:38 34° WSW 19:09:42 10° S
ATLAS 3B R/B 4.1 18:58:09 10° W 19:04:41 37° NNW 19:11:36 10° NE
MINOTAUR 4 R/B 4.0 19:02:37 10° NNE 19:05:59 54° ESE 19:09:21 10° S
Cosmos 2237 Rocket 3.1 19:01:53 10° NNW 19:07:01 33° NE 19:11:34 12° ESE
Cosmos 1842 3.7 19:03:29 10° NNW 19:07:17 63° W 19:11:03 10° S
Resurs 1-3 3.9 19:03:09 10° SE 19:07:22 48° ENE 19:11:36 10° N
CSL-04 Rocket 3.9 19:02:12 10° SE 19:07:35 54° ENE 19:13:00 10° N
In-Cosmos 22 4.2 19:02:05 10° NNW 19:07:45 82° ENE 19:13:28 10° SSE
Cosmos 2016 Rocket 4.2 19:02:17 10° N 19:08:11 48° ENE 19:14:05 10° SSE
KORONAS-FOTON 3.7 19:05:41 10° N 19:09:29 71° ENE 19:13:17 10° SSE
NOSS 3-2 (C) 4.2 19:02:49 10° NW 19:09:43 56° NNE 19:17:10 13° ESE
Cosmos 2056 Rocket 3.6 19:05:10 10° S 19:10:07 52° ESE 19:15:06 10° NNE
Okean-O 3.1 19:07:32 10° SE 19:11:40 41° ENE 19:15:51 10° N
Cosmos 2123 Rocket 4.4 19:07:03 10° SSE 19:12:51 41° E 19:18:43 10° NNE
Cosmos 2173 Rocket 4.0 19:07:40 10° N 19:14:05 78° ENE 19:20:28 10° SSE
USA 281 3.4 19:08:36 10° NNE 19:15:12 82° WNW 19:21:46 10° SW
Cosmos 1470 Rocket 3.6 19:11:46 10° S 19:16:15 90° E 19:20:46 10° N
IGS 5A 3.6 19:12:57 10° S 19:17:05 79° WSW 19:21:14 10° NNW
CENTAUR R/B 3.3 19:09:21 10° NW 19:17:21 84° NE 19:26:24 10° SE
Cosmos 1975 3.1 19:13:57 10° SSE 19:17:41 42° E 19:21:28 10° NNE
GEOS 3 Rocket 3.7 19:12:56 10° NE 19:18:21 83° SE 19:23:45 10° SW
Cosmos 2322 3.8 19:14:24 10° NNW 19:20:07 86° WSW 19:25:46 10° SSE
Cosmos 1000 Rocket 4.4 19:14:50 10° S 19:20:54 67° E 19:27:00 10° NNE
Cosmos 2100 Rocket 4.1 19:14:54 10° N 19:21:20 89° E 19:27:40 10° S
Geosat 4.1 19:16:28 10° SE 19:21:26 63° NE 19:26:25 10° NNW
SJ-6B 2.7 19:17:34 10° SSE 19:21:31 86° ENE 19:25:24 10° NNW
CZ-4B R/B 4.0 19:16:23 10° S 19:21:57 58° WSW 19:27:33 10° NNW
Cosmos 2242 Rocket 3.8 19:17:49 10° N 19:22:19 52° ENE 19:26:47 10° SSE
USA 238 DEB 4.2 19:16:08 10° NW 19:23:07 55° NNE 19:29:15 16° ESE
USA 238 4.2 19:16:14 10° NW 19:23:13 54° NNE 19:29:20 16° ESE
Okean O Rocket 2.0 19:19:06 10° S 19:23:30 66° WSW 19:27:54 10° NNW
Cosmos 1850 Rocket 4.4 19:18:26 10° NNW 19:23:36 48° ENE 19:27:54 15° SE
SPOT 1/Viking Rocket 3.9 19:18:47 10° SE 19:23:41 45° ENE 19:28:38 10° N
Cosmos 1624 Rocket 4.0 19:18:30 10° SSW 19:23:45 68° ESE 19:29:04 10° NNE
USA 305 4.4 19:21:21 10° W 19:24:32 25° SW 19:27:42 10° SSE
Cosmos 2333 Rocket 3.3 19:21:04 10° NW 19:26:33 46° WSW 19:32:00 10° S
NOSS 0 Rocket 4.0 19:20:32 10° NNW 19:26:44 64° NE 19:32:05 14° SE
Cosmos 1707 3.1 19:23:33 10° NNW 19:27:21 63° W 19:31:05 10° S
Cosmos 1980 4.2 19:22:36 10° NNW 19:28:05 45° NE 19:32:07 18° ESE
Cosmos 1805 4.0 19:26:23 10° SSE 19:29:41 29° E 19:33:02 10° NNE
Iridium 4 Rocket 3.2 19:25:50 10° N 19:29:58 48° E 19:33:59 10° SSE
Cosmos 1420 Rocket 3.9 19:26:34 10° SSW 19:31:46 73° ESE 19:36:59 10° NNE
Cosmos 2219 Rocket 2.8 19:27:22 10° NW 19:32:57 58° WSW 19:38:31 10° S
Cosmos 2098 Rocket 3.8 19:28:54 10° SSE 19:34:02 56° E 19:40:16 10° NNE
SL-14 R/B 3.6 19:31:52 10° N 19:35:34 43° ENE 19:37:51 20° SE
Meteor 2-9 Rocket 4.3 19:30:39 10° SSW 19:36:11 76° WNW 19:41:35 10° N
COSMOS 2428 2.8 19:32:10 10° NNW 19:37:55 82° WSW 19:43:40 10° SSE
Cosmos 1833 4.5 19:34:20 10° SW 19:39:55 71° WNW 19:45:35 10° NNE
CSL-04 Debris 4.3 19:36:53 10° SSE 19:42:17 80° WSW 19:47:47 10° NNW
CZ-4 R/B 3.1 19:39:36 10° SSW 19:43:04 32° W 19:46:37 10° NNW
SAR-Lupe-3 4.4 19:41:27 15° SSE 19:44:20 77° ENE 19:47:56 10° NNW
Cosmos 1674 3.6 19:41:32 10° NNW 19:45:09 48° W 19:48:44 10° S
IRS-1C Rocket 4.0 19:42:36 10° SSE 19:47:46 73° ENE 19:53:04 10° NNW
Cosmos 1452 Rocket 3.9 19:43:09 10° S 19:47:58 38° ESE 19:52:50 10° NE
Cosmos 2297 Rocket 3.1 19:50:01 22° SE 19:51:40 25° ESE 19:56:12 10° NE
Landsat 7 4.3 19:47:28 10° S 19:52:08 63° WSW 19:56:50 10° NNW
Cosmos 2061 Rocket 4.0 19:51:20 10° N 19:57:50 85° E 20:04:17 10° S
USA 215 3.6 19:52:54 10° ENE 19:59:22 63° NNW 20:05:48 10° W
Okean 2 3.3 19:55:39 10° N 19:59:44 89° E 20:02:37 19° S
Terra 3.3 19:59:15 19° ENE 19:59:56 20° ENE 20:03:18 10° NNE
Timation 1 Rocket 4.3 19:55:03 10° SSW 20:01:03 86° ESE 20:07:07 10° NNE
Cosmos 1741 Rocket 3.9 19:55:54 10° NNW 20:01:11 82° ENE 20:04:26 24° SSE
Cosmos 2233 Rocket 3.9 19:57:35 10° N 20:03:46 74° ENE 20:08:56 15° SSE
ISS -3.9 20:03:30 10° W 20:06:51 82° S 20:07:24 59° E
SPOT 5 3.7 20:06:04 28° E 20:06:54 30° ENE 20:11:04 10° N
Cosmos 2227 Rocket 4.0 20:10:23 14° ENE 20:10:23 14° ENE 20:11:23 10° NE
SL-27 R/B 3.1 20:04:06 10° SW 20:07:20 53° WNW 20:10:34 10° NNE
Cosmos 1933 Rocket 4.5 20:03:36 10° SSW 20:07:47 49° WNW 20:12:02 10° N
SJ 16-02 3.3 20:06:22 10° N 20:08:55 15° NE 20:09:25 15° NE
IRS-P2 Rocket 4.5 20:07:08 21° SSE 20:10:40 82° ENE 20:15:57 10° NNW
ADEOS Rocket 4.0 20:08:22 26° E 20:10:51 34° NE 20:16:57 10° N
Cosmos 1726 1.8 20:09:30 24° S 20:11:30 80° E 20:15:03 10° NNE
CZ-4C R/B 3.5 20:07:01 10° NW 20:13:07 41° NNE 20:17:35 22° E
H-2A R/B 3.1 20:13:28 38° E 20:14:10 41° ENE 20:18:22 10° N
SL-16 R/B 3.0 20:09:44 10° NNW 20:15:01 37° NE 20:16:53 29° E
Cosmos 1733 3.3 20:11:24 10° SSW 20:15:10 74° WNW 20:18:57 10° N
Cosmos 968 Rocket 3.7 20:10:33 10° NNW 20:15:39 53° ENE 20:17:13 39° ESE
USA 186 4.2 20:14:25 10° SSW 20:16:53 22° W 20:19:23 10° NW
Cosmos 1869 Rocket 3.7 20:12:41 10° SSW 20:17:00 73° WNW 20:21:21 10° N
Resurs 01 Rocket 1.7 20:17:43 24° S 20:20:22 74° WSW 20:24:49 10° NNW
Cosmos 1725 Rocket 4.5 20:16:18 10° NNW 20:22:22 60° W 20:28:25 10° S
MetOp-A 4.0 20:20:21 33° SSE 20:22:50 75° ENE 20:28:03 10° NNW
Cosmos 482 Debris 4.4 20:18:26 10° W 20:24:01 87° N 20:24:52 55° E
Ariane Rocket 3.1 20:25:06 43° ESE 20:26:26 57° ENE 20:31:25 10° N
ERS-1 Rocket 3.6 20:25:57 36° E 20:26:33 37° ENE 20:31:09 10° N
Cosmos 1867 3.7 20:22:38 10° SSW 20:27:52 49° ESE 20:33:07 10° NE
SPOT 3 Rocket 3.8 20:34:26 46° E 20:35:20 52° ENE 20:40:25 10° N
Spot 2 Rocket 3.9 20:36:58 44° E 20:37:27 45° ENE 20:42:19 10° N
Landsat 5 3.5 20:34:00 10° N 20:37:49 68° WNW 20:40:22 20° SSW
Meteor 1-12 Rocket 4.4 20:40:43 47° ESE 20:41:03 47° E 20:46:32 10° NNE
Cosmos 1766 3.7 20:47:21 50° NNE 20:47:21 50° NNE 20:50:15 10° N
Cosmos 2237 Rocket 2.5 20:45:51 10° NW 20:51:26 59° WSW 20:53:25 38° S
Cosmos 1674 Rocket 3.5 20:52:40 10° NNW 20:56:57 83° WNW 20:56:57 83° WNW
ATLAS 3B R/B 4.1 20:50:44 10° NW 20:57:22 35° N 21:02:17 18° ENE
Cosmos 2221 Rocket 3.7 20:53:56 10° NNW 20:58:22 69° W 20:58:42 66° SW
Cosmos 1464 Rocket 4.0 20:53:33 10° N 20:59:54 70° ENE 21:01:07 57° SE
NOSS 3-2 (C) 4.4 20:53:43 10° NW 21:00:58 59° SW 21:04:38 34° S
Cosmos 1733 Rocket 3.1 21:00:57 69° WSW 21:01:11 71° WNW 21:05:31 10° N
ATLAS CENTAUR R/B 3.9 20:48:01 10° SW 21:03:15 80° SSE 21:08:50 19° ENE
Meteor 1-24 Rocket 3.7 20:59:02 10° N 21:04:55 73° ENE 21:05:38 65° SE
CENTAUR R/B 4.3 21:00:25 10° NW 21:07:45 36° WSW 21:13:40 17° S
Cosmos 1486 Rocket 4.4 21:04:01 10° NNW 21:09:01 50° NE 21:09:01 50° NE
Cosmos 1378 Rocket 3.9 21:05:11 10° NNW 21:09:32 62° W 21:09:32 62° W
FALCON 9 R/B 4.3 20:57:45 10° WSW 21:10:40 26° SSW 21:12:17 25° S
Cosmos 1891 Rocket 4.4 21:05:08 10° NNW 21:11:16 82° W 21:12:50 53° S
USA 238 DEB 4.2 21:07:12 10° NW 21:14:19 58° SW 21:16:42 42° S
USA 238 4.2 21:07:18 10° NW 21:14:25 59° SW 21:16:47 43° S
Cosmos 1110 Rocket 4.4 21:12:07 10° SW 21:17:17 62° WNW 21:22:27 10° NNE
Cosmos 1943 4.1 21:18:52 10° NNW 21:24:01 37° NE 21:24:01 37° NE
Meteor 2-5 Rocket 3.8 21:18:19 10° NNW 21:24:07 78° W 21:24:43 70° SSW
H-2A R/B 4.4 21:21:10 10° NNE 21:22:00 15° NNE 21:22:00 15° NNE
ARIANE 5 R/B 4.2 21:30:54 27° NNE 21:30:54 27° NNE 21:33:13 10° N
Cosmos 2297 Rocket 2.4 21:29:37 10° SW 21:35:15 68° NW 21:40:55 10° NNE
Cosmos 1025 Rocket 4.5 21:32:14 10° N 21:34:42 33° N 21:34:42 33° N
Terra 2.4 21:38:00 56° NW 21:38:00 56° NW 21:41:50 10° NNW
USA 215 3.6 21:40:09 45° ENE 21:42:01 61° N 21:48:26 10° WNW
Cosmos 1634 Rocket 4.4 21:36:29 10° N 21:42:00 52° NE 21:42:00 52° NE
ISS -0.4 21:40:17 10° W 21:40:21 10° W 21:40:21 10° W
SPOT 5 3.8 21:45:15 41° W 21:45:15 41° W 21:49:22 10° NNW
SJ 16-02 2.8 21:43:45 10° NNW 21:46:19 34° NNW 21:46:19 34° NNW
H-2A R/B 4.3 21:49:49 27° W 21:49:49 27° W 21:53:24 10° NW
Cosmos 2227 Rocket 2.7 21:52:06 52° NNE 21:52:06 52° NNE 21:56:22 10° NNE
ADEOS Rocket 3.3 21:55:18 60° SW 21:55:55 63° W 22:02:49 10° NNW
SL-16 R/B 2.8 21:53:50 10° NW 21:58:46 51° W 21:58:46 51° W
Cosmos 2034 Rocket 4.1 21:53:15 10° NNW 21:59:22 68° W 21:59:22 68° W
CZ-4C R/B 2.8 21:55:26 10° NW 22:02:25 88° SW 22:02:44 83° SSE
Tsikada Rocket 4.4 22:05:40 53° NNE 22:05:40 53° NNE 22:10:22 10° NNE
ERS-1 Rocket 4.2 22:05:55 36° W 22:05:55 36° W 22:10:01 10° NNW
Cosmos 2263 Rocket 4.0 22:47:28 22° NNE 22:47:28 22° NNE 22:49:22 10° NNE
ATLAS 3B R/B 3.2 22:42:06 10° NW 22:49:31 61° NE 22:49:31 61° NE
ATLAS CENTAUR R/B 3.7 23:08:03 10° W 23:18:29 57° NNW 23:18:29 57° NNW
Cosmos 2297 Rocket 4.5 23:16:13 10° W 23:20:23 20° NNW 23:24:33 10° NNE
USA 215 4.1 23:27:28 41° WNW 23:27:28 41° WNW 23:31:30 10° WNW
NOSS 3-1 (C) 4.2 23:23:08 10° NW 23:29:04 62° N 23:29:04 62° N
Cosmos 2082 Rocket 4.4 23:26:32 10° NNW 23:30:21 18° NNE 23:31:34 17° NE
Cosmos 2227 Rocket 4.3 23:33:48 19° WNW 23:35:38 23° NW 23:40:03 10° NNE
Cosmos 2344 4.0 23:30:50 10° NW 23:38:52 79° W 23:38:52 79° W
Cosmos 1833 Rocket 4.3 23:42:29 10° NNW 23:45:58 30° N 23:45:58 30° N
CZ-4C R/B 4.4 23:44:25 10° WNW 23:47:54 24° W 23:47:54 24° W
